| time (UTC) | temp F | wind direction | speed MPH | gust MPH | rain 1hr in | rain 24hr in | rain mn in | humidity % | barometer mb |
| 20260503184539 | 54 | 340 | 1.0 | 9.0 | 0.00 | 0.02 | 0.02 | 46 | 1005.5 |
| 20260503184029 | 54 | 323 | 3.0 | 9.0 | 0.00 | 0.02 | 0.02 | 47 | 1005.6 |
| 20260503183525 | 54 | 285 | 4.0 | 10.0 | 0.00 | 0.02 | 0.02 | 46 | 1005.6 |
| 20260503183042 | 54 | 297 | 3.0 | 10.0 | 0.00 | 0.02 | 0.02 | 44 | 1005.6 |
| 20260503182527 | 54 | 69 | 3.0 | 10.0 | 0.00 | 0.02 | 0.02 | 47 | 1005.7 |
| 20260503182024 | 54 | 62 | 3.0 | 6.0 | 0.00 | 0.02 | 0.02 | 49 | 1005.7 |
| 20260503181543 | 54 | 15 | 1.0 | 8.0 | 0.00 | 0.02 | 0.02 | 53 | 1005.7 |
| 20260503181028 | 53 | 122 | 2.0 | 9.0 | 0.00 | 0.02 | 0.02 | 53 | 1005.6 |
| 20260503180528 | 53 | 304 | 2.0 | 9.0 | 0.00 | 0.02 | 0.02 | 53 | 1005.8 |
| 20260503180050 | 53 | 342 | 2.0 | 7.0 | 0.00 | 0.02 | 0.02 | 53 | 1005.7 |
| 20260503175527 | 52 | 106 | 1.0 | 12.0 | 0.00 | 0.02 | 0.02 | 54 | 1005.8 |
| 20260503175027 | 52 | 281 | 2.0 | 12.0 | 0.00 | 0.02 | 0.02 | 53 | 1005.9 |
| 20260503174540 | 51 | 297 | 3.0 | 12.0 | 0.00 | 0.02 | 0.02 | 53 | 1005.9 |
| 20260503174027 | 51 | 233 | 3.0 | 10.0 | 0.00 | 0.02 | 0.02 | 53 | 1005.9 |
| 20260503173527 | 51 | 319 | 3.0 | 10.0 | 0.00 | 0.02 | 0.02 | 56 | 1005.8 |
| 20260503173044 | 51 | 48 | 3.0 | 9.0 | 0.00 | 0.02 | 0.02 | 55 | 1005.9 |
| 20260503172525 | 51 | 56 | 2.0 | 8.0 | 0.00 | 0.02 | 0.02 | 54 | 1005.8 |
| 20260503172026 | 51 | 300 | 2.0 | 11.0 | 0.00 | 0.02 | 0.02 | 56 | 1005.7 |
| 20260503171547 | 51 | 340 | 5.0 | 16.0 | 0.00 | 0.02 | 0.02 | 53 | 1005.8 |
| 20260503171031 | 51 | 351 | 4.0 | 16.0 | 0.00 | 0.02 | 0.02 | 53 | 1005.7 |
| 20260503170527 | 52 | 63 | 3.0 | 15.0 | 0.00 | 0.02 | 0.02 | 52 | 1005.8 |
| 20260503150526 | 45 | 359 | 1.0 | 5.0 | 0.00 | 0.02 | 0.02 | 76 | 1006.1 |
| 20260503131028 | 42 | 331 | 1.0 | 7.0 | 0.02 | 0.02 | 0.02 | 88 | 1006.5 |
| 20260503130527 | 42 | 35 | 0.0 | 6.0 | 0.02 | 0.02 | 0.02 | 88 | 1006.5 |
| 20260503110526 | 41 | 0 | 1.0 | 5.0 | 0.00 | 0.11 | 0.00 | 82 | 1006.7 |
| 20260503081537 | 42 | 0 | 0.0 | 2.0 | 0.00 | 0.12 | 0.00 | 86 | 1007.6 |
| 20260503081029 | 42 | 0 | 0.0 | 1.0 | 0.00 | 0.12 | 0.00 | 87 | 1007.7 |
| 20260503080527 | 42 | 0 | 0.0 | 1.0 | 0.00 | 0.12 | 0.00 | 87 | 1007.9 |
| 20260503072528 | 43 | 1 | 1.0 | 3.0 | 0.00 | 0.12 | 0.00 | 86 | 1008.1 |
| 20260503072025 | 43 | 0 | 0.0 | 3.0 | 0.00 | 0.12 | 0.00 | 87 | 1008.0 |
| 20260503071551 | 43 | 0 | 0.0 | 2.0 | 0.00 | 0.12 | 0.00 | 88 | 1008.0 |
| 20260503071028 | 43 | 62 | 0.0 | 2.0 | 0.00 | 0.12 | 0.00 | 88 | 1008.1 |
| 20260503070528 | 43 | 37 | 0.0 | 1.0 | 0.00 | 0.12 | 0.00 | 88 | 1008.1 |
| 20260503055027 | 44 | 0 | 0.0 | 1.0 | 0.00 | 0.12 | 0.00 | 87 | 1009.3 |
| 20260503054554 | 44 | 0 | 0.0 | 1.0 | 0.00 | 0.12 | 0.00 | 87 | 1009.2 |
| 20260503054024 | 44 | 342 | 0.0 | 1.0 | 0.00 | 0.12 | 0.00 | 87 | 1009.0 |
| 20260503053527 | 44 | 349 | 0.0 | 2.0 | 0.00 | 0.12 | 0.00 | 86 | 1009.1 |
| 20260503053037 | 44 | 355 | 0.0 | 2.0 | 0.00 | 0.12 | 0.00 | 86 | 1009.2 |
| 20260503052528 | 44 | 0 | 0.0 | 2.0 | 0.00 | 0.12 | 0.00 | 86 | 1009.2 |
| 20260503052026 | 44 | 0 | 0.0 | 2.0 | 0.00 | 0.12 | 0.00 | 86 | 1009.3 |
| 20260503051539 | 44 | 1 | 0.0 | 2.0 | 0.00 | 0.12 | 0.00 | 85 | 1009.3 |
| 20260503051026 | 44 | 3 | 0.0 | 2.0 | 0.00 | 0.12 | 0.00 | 85 | 1009.4 |
| 20260503050524 | 44 | 7 | 0.0 | 2.0 | 0.00 | 0.12 | 0.00 | 85 | 1009.4 |
| 20260503050041 | 45 | 0 | 0.0 | 3.0 | 0.00 | 0.12 | 0.00 | 85 | 1009.5 |
| 20260503045527 | 45 | 0 | 0.0 | 3.0 | 0.00 | 0.12 | 0.00 | 85 | 1009.6 |
| 20260503045029 | 45 | 0 | 0.0 | 3.0 | 0.00 | 0.12 | 0.00 | 84 | 1009.6 |
| 20260503044537 | 45 | 0 | 1.0 | 3.0 | 0.00 | 0.12 | 0.00 | 85 | 1009.6 |
| 20260503044024 | 45 | 0 | 0.0 | 2.0 | 0.00 | 0.12 | 0.00 | 85 | 1009.7 |
| 20260503043528 | 44 | 360 | 0.0 | 2.0 | 0.00 | 0.12 | 0.00 | 85 | 1009.9 |
| 20260503043041 | 45 | 0 | 0.0 | 2.0 | 0.00 | 0.12 | 0.00 | 85 | 1009.9 |
| 20260503042528 | 45 | 0 | 0.0 | 2.0 | 0.00 | 0.12 | 0.00 | 86 | 1010.0 |
| 20260503042025 | 45 | 357 | 0.0 | 2.0 | 0.00 | 0.12 | 0.00 | 87 | 1010.0 |
| 20260503041543 | 45 | 0 | 0.0 | 2.0 | 0.00 | 0.12 | 0.00 | 87 | 1010.0 |
| 20260503041026 | 45 | 28 | 0.0 | 1.0 | 0.00 | 0.12 | 0.00 | 88 | 1010.1 |
| 20260503040524 | 45 | 0 | 0.0 | 0.0 | 0.00 | 0.12 | 0.00 | 89 | 1010.1 |
| 20260503040051 | 45 | 0 | 0.0 | 3.0 | 0.00 | 0.12 | 0.00 | 89 | 1010.1 |
| 20260503035525 | 45 | 0 | 0.0 | 3.0 | 0.00 | 0.12 | 0.12 | 89 | 1010.1 |
| 20260503035025 | 45 | 0 | 0.0 | 3.0 | 0.00 | 0.12 | 0.12 | 89 | 1010.1 |
| 20260503034539 | 45 | 0 | 1.0 | 3.0 | 0.00 | 0.12 | 0.12 | 90 | 1010.1 |
| 20260503034025 | 45 | 0 | 0.0 | 1.0 | 0.00 | 0.12 | 0.12 | 91 | 1010.2 |
| 20260503033524 | 45 | 0 | 0.0 | 1.0 | 0.00 | 0.12 | 0.12 | 91 | 1010.1 |
| 20260503033040 | 45 | 0 | 0.0 | 0.0 | 0.00 | 0.12 | 0.12 | 91 | 1010.2 |
| 20260503032530 | 45 | 0 | 0.0 | 0.0 | 0.00 | 0.12 | 0.12 | 90 | 1010.2 |
| 20260503032028 | 45 | 0 | 0.0 | 0.0 | 0.00 | 0.12 | 0.12 | 90 | 1010.2 |
| 20260503031536 | 45 | 0 | 0.0 | 0.0 | 0.00 | 0.12 | 0.12 | 90 | 1010.2 |
| 20260503031025 | 45 | 0 | 0.0 | 0.0 | 0.00 | 0.12 | 0.12 | 90 | 1010.1 |
| 20260503030524 | 46 | 0 | 0.0 | 0.0 | 0.00 | 0.12 | 0.12 | 90 | 1010.1 |
| 20260503030048 | 46 | 0 | 0.0 | 0.0 | 0.00 | 0.12 | 0.12 | 89 | 1010.2 |
| 20260503025525 | 46 | 0 | 0.0 | 0.0 | 0.00 | 0.12 | 0.12 | 89 | 1010.1 |
| 20260503025029 | 46 | 0 | 0.0 | 0.0 | 0.00 | 0.12 | 0.12 | 89 | 1010.1 |
| 20260503024541 | 46 | 0 | 0.0 | 0.0 | 0.00 | 0.12 | 0.12 | 89 | 1010.1 |
| 20260503024029 | 46 | 0 | 0.0 | 0.0 | 0.00 | 0.12 | 0.12 | 88 | 1010.1 |
| 20260503023524 | 46 | 0 | 0.0 | 0.0 | 0.00 | 0.12 | 0.12 | 88 | 1010.1 |
| 20260503023039 | 46 | 0 | 0.0 | 0.0 | 0.00 | 0.12 | 0.12 | 88 | 1010.1 |
| 20260503022527 | 47 | 0 | 0.0 | 0.0 | 0.00 | 0.12 | 0.12 | 88 | 1010.1 |
| 20260503022025 | 47 | 0 | 0.0 | 0.0 | 0.00 | 0.12 | 0.12 | 87 | 1010.1 |
| 20260503021538 | 47 | 0 | 0.0 | 0.0 | 0.00 | 0.12 | 0.12 | 87 | 1010.2 |
| 20260503021028 | 47 | 0 | 0.0 | 0.0 | 0.00 | 0.12 | 0.12 | 87 | 1010.3 |
| 20260503020528 | 47 | 0 | 0.0 | 0.0 | 0.00 | 0.12 | 0.12 | 87 | 1010.3 |
| 20260503020050 | 47 | 0 | 0.0 | 0.0 | 0.00 | 0.12 | 0.12 | 86 | 1010.4 |
| 20260503015528 | 47 | 0 | 0.0 | 0.0 | 0.00 | 0.12 | 0.12 | 86 | 1010.3 |
| 20260503015027 | 48 | 0 | 0.0 | 0.0 | 0.00 | 0.12 | 0.12 | 85 | 1010.5 |
| 20260503014556 | 48 | 0 | 0.0 | 0.0 | 0.00 | 0.12 | 0.12 | 85 | 1010.4 |
| 20260503014024 | 48 | 0 | 0.0 | 1.0 | 0.00 | 0.12 | 0.12 | 84 | 1010.4 |
| 20260503013527 | 49 | 0 | 0.0 | 1.0 | 0.00 | 0.12 | 0.12 | 84 | 1010.4 |
| 20260503013041 | 49 | 0 | 0.0 | 1.0 | 0.00 | 0.12 | 0.12 | 84 | 1010.3 |
| 20260503012530 | 49 | 0 | 0.0 | 0.0 | 0.00 | 0.12 | 0.12 | 83 | 1010.3 |
| 20260503012028 | 49 | 0 | 0.0 | 0.0 | 0.00 | 0.12 | 0.12 | 83 | 1010.4 |
| 20260503011538 | 49 | 0 | 0.0 | 1.0 | 0.00 | 0.12 | 0.12 | 83 | 1010.3 |
| 20260503011026 | 49 | 0 | 0.0 | 2.0 | 0.00 | 0.12 | 0.12 | 82 | 1010.2 |
| 20260503010527 | 49 | 0 | 0.0 | 2.0 | 0.00 | 0.12 | 0.12 | 82 | 1010.3 |
| 20260503010038 | 49 | 0 | 0.0 | 2.0 | 0.00 | 0.12 | 0.12 | 83 | 1010.2 |
| 20260503005528 | 49 | 0 | 0.0 | 1.0 | 0.00 | 0.12 | 0.12 | 83 | 1010.2 |
| 20260503005028 | 49 | 349 | 0.0 | 3.0 | 0.00 | 0.12 | 0.12 | 84 | 1010.3 |
| 20260503004537 | 50 | 0 | 0.0 | 3.0 | 0.00 | 0.12 | 0.12 | 84 | 1010.2 |
| 20260503004026 | 50 | 0 | 0.0 | 3.0 | 0.00 | 0.12 | 0.12 | 85 | 1010.2 |
| 20260503003527 | 50 | 342 | 0.0 | 2.0 | 0.00 | 0.12 | 0.12 | 86 | 1010.3 |
| 20260503003043 | 50 | 335 | 0.0 | 2.0 | 0.00 | 0.12 | 0.12 | 86 | 1010.3 |
| 20260503002527 | 50 | 0 | 0.0 | 2.0 | 0.00 | 0.12 | 0.12 | 86 | 1010.3 |
| 20260503002028 | 50 | 335 | 0.0 | 2.0 | 0.00 | 0.12 | 0.12 | 87 | 1010.2 |
| 20260503001553 | 50 | 0 | 0.0 | 2.0 | 0.00 | 0.12 | 0.12 | 87 | 1010.2 |
| 20260503001028 | 50 | 0 | 0.0 | 4.0 | 0.00 | 0.12 | 0.12 | 87 | 1010.2 |
| 20260503000528 | 50 | 8 | 1.0 | 4.0 | 0.00 | 0.12 | 0.12 | 87 | 1010.2 |
| 20260503000038 | 50 | 304 | 1.0 | 3.0 | 0.00 | 0.12 | 0.12 | 86 | 1010.1 |
| 20260502235527 | 50 | 7 | 0.0 | 1.0 | 0.00 | 0.12 | 0.12 | 85 | 1010.0 |
| 20260502235027 | 50 | 8 | 0.0 | 1.0 | 0.00 | 0.12 | 0.12 | 85 | 1010.0 |
| 20260502234541 | 50 | 0 | 0.0 | 0.0 | 0.00 | 0.12 | 0.12 | 84 | 1009.9 |
| 20260502234028 | 50 | 0 | 0.0 | 0.0 | 0.00 | 0.12 | 0.12 | 83 | 1009.9 |
| 20260502233526 | 50 | 0 | 0.0 | 0.0 | 0.00 | 0.12 | 0.12 | 83 | 1009.9 |
| 20260502233045 | 50 | 0 | 0.0 | 0.0 | 0.00 | 0.12 | 0.12 | 83 | 1009.9 |
| 20260502232527 | 50 | 0 | 0.0 | 0.0 | 0.00 | 0.12 | 0.12 | 83 | 1009.9 |
| 20260502232027 | 51 | 0 | 0.0 | 1.0 | 0.00 | 0.12 | 0.12 | 82 | 1009.9 |
| 20260502231536 | 51 | 0 | 0.0 | 1.0 | 0.00 | 0.12 | 0.12 | 81 | 1009.9 |
| 20260502231027 | 51 | 252 | 0.0 | 0.0 | 0.00 | 0.12 | 0.12 | 81 | 1009.8 |
| 20260502230527 | 51 | 0 | 0.0 | 1.0 | 0.00 | 0.12 | 0.12 | 81 | 1009.8 |
| 20260502230045 | 51 | 0 | 0.0 | 1.0 | 0.00 | 0.12 | 0.12 | 81 | 1009.7 |
| 20260502225530 | 51 | 0 | 0.0 | 1.0 | 0.00 | 0.12 | 0.12 | 81 | 1009.7 |
| 20260502225029 | 51 | 0 | 0.0 | 2.0 | 0.00 | 0.12 | 0.12 | 81 | 1009.5 |
| 20260502224541 | 51 | 0 | 0.0 | 2.0 | 0.00 | 0.12 | 0.12 | 81 | 1009.4 |
| 20260502224025 | 51 | 134 | 0.0 | 1.0 | 0.00 | 0.12 | 0.12 | 81 | 1009.4 |
| 20260502223528 | 51 | 0 | 0.0 | 1.0 | 0.00 | 0.12 | 0.12 | 81 | 1009.3 |
| 20260502223042 | 51 | 152 | 0.0 | 1.0 | 0.00 | 0.12 | 0.12 | 81 | 1009.4 |
| 20260502222529 | 51 | 0 | 0.0 | 0.0 | 0.00 | 0.12 | 0.12 | 83 | 1009.4 |
| 20260502222027 | 50 | 0 | 0.0 | 0.0 | 0.00 | 0.12 | 0.12 | 83 | 1009.5 |
| 20260502221542 | 50 | 0 | 0.0 | 0.0 | 0.00 | 0.12 | 0.12 | 83 | 1009.5 |
| 20260502221025 | 50 | 160 | 0.0 | 0.0 | 0.00 | 0.12 | 0.12 | 83 | 1009.6 |
| 20260502220527 | 50 | 161 | 0.0 | 0.0 | 0.00 | 0.12 | 0.12 | 84 | 1009.6 |
| 20260502220045 | 50 | 0 | 0.0 | 0.0 | 0.00 | 0.12 | 0.12 | 84 | 1009.6 |
| 20260502215529 | 50 | 0 | 0.0 | 0.0 | 0.00 | 0.12 | 0.12 | 83 | 1009.6 |
| 20260502215027 | 51 | 0 | 0.0 | 1.0 | 0.00 | 0.12 | 0.12 | 83 | 1009.6 |
| 20260502214542 | 51 | 0 | 0.0 | 2.0 | 0.00 | 0.12 | 0.12 | 82 | 1009.7 |
| 20260502214029 | 51 | 20 | 0.0 | 3.0 | 0.00 | 0.12 | 0.12 | 83 | 1009.7 |
| 20260502213527 | 51 | 0 | 0.0 | 3.0 | 0.00 | 0.12 | 0.12 | 82 | 1009.7 |
| 20260502213045 | 51 | 0 | 0.0 | 3.0 | 0.00 | 0.12 | 0.12 | 80 | 1009.7 |
| 20260502212532 | 51 | 0 | 0.0 | 3.0 | 0.00 | 0.12 | 0.12 | 78 | 1009.9 |
| 20260502212027 | 52 | 0 | 0.0 | 3.0 | 0.00 | 0.12 | 0.12 | 77 | 1009.9 |
| 20260502211543 | 52 | 0 | 0.0 | 5.0 | 0.00 | 0.12 | 0.12 | 75 | 1009.9 |
| 20260502211030 | 52 | 149 | 0.0 | 5.0 | 0.00 | 0.12 | 0.12 | 74 | 1009.8 |
| 20260502210525 | 53 | 96 | 1.0 | 5.0 | 0.00 | 0.12 | 0.12 | 73 | 1009.8 |
| 20260502210049 | 53 | 164 | 0.0 | 2.0 | 0.00 | 0.12 | 0.12 | 73 | 1009.7 |
| 20260502205527 | 53 | 16 | 0.0 | 2.0 | 0.00 | 0.12 | 0.12 | 74 | 1009.7 |
| 20260502205027 | 53 | 360 | 0.0 | 2.0 | 0.00 | 0.12 | 0.12 | 74 | 1009.6 |
| 20260502204544 | 53 | 59 | 1.0 | 3.0 | 0.00 | 0.12 | 0.12 | 75 | 1009.6 |
| 20260502204026 | 53 | 360 | 0.0 | 3.0 | 0.00 | 0.12 | 0.12 | 75 | 1009.6 |
| 20260502203527 | 53 | 4 | 0.0 | 2.0 | 0.00 | 0.12 | 0.12 | 74 | 1009.5 |
| 20260502203038 | 54 | 28 | 0.0 | 2.0 | 0.00 | 0.12 | 0.12 | 74 | 1009.5 |
| 20260502202527 | 54 | 0 | 0.0 | 3.0 | 0.00 | 0.12 | 0.12 | 73 | 1009.5 |
| 20260502202028 | 55 | 342 | 0.0 | 3.0 | 0.00 | 0.12 | 0.12 | 71 | 1009.5 |
| 20260502201550 | 55 | 216 | 0.0 | 4.0 | 0.00 | 0.12 | 0.12 | 69 | 1009.5 |
| 20260502201027 | 56 | 163 | 0.0 | 4.0 | 0.00 | 0.12 | 0.12 | 67 | 1009.5 |
| 20260502200528 | 56 | 271 | 1.0 | 7.0 | 0.00 | 0.12 | 0.12 | 67 | 1009.5 |
| 20260502200043 | 56 | 238 | 1.0 | 7.0 | 0.00 | 0.12 | 0.12 | 68 | 1009.3 |
| 20260502195527 | 56 | 151 | 1.0 | 5.0 | 0.00 | 0.12 | 0.12 | 67 | 1009.5 |
| 20260502195027 | 55 | 0 | 1.0 | 5.0 | 0.00 | 0.12 | 0.12 | 68 | 1009.4 |
| 20260502194541 | 56 | 133 | 0.0 | 2.0 | 0.00 | 0.12 | 0.12 | 67 | 1009.5 |
| 20260502194027 | 56 | 135 | 0.0 | 3.0 | 0.00 | 0.12 | 0.12 | 66 | 1009.5 |
| 20260502193528 | 56 | 0 | 1.0 | 4.0 | 0.00 | 0.12 | 0.12 | 65 | 1009.6 |
| 20260502193037 | 56 | 157 | 1.0 | 4.0 | 0.00 | 0.12 | 0.12 | 64 | 1009.7 |
| 20260502192528 | 56 | 165 | 1.0 | 5.0 | 0.00 | 0.12 | 0.12 | 64 | 1009.7 |
| 20260502192027 | 57 | 154 | 1.0 | 5.0 | 0.00 | 0.12 | 0.12 | 62 | 1009.7 |
| 20260502191550 | 57 | 170 | 1.0 | 5.0 | 0.00 | 0.12 | 0.12 | 60 | 1009.8 |
| 20260502191030 | 57 | 162 | 1.0 | 5.0 | 0.00 | 0.12 | 0.12 | 60 | 1009.7 |
| 20260502190527 | 58 | 168 | 1.0 | 5.0 | 0.00 | 0.12 | 0.12 | 59 | 1009.7 |
| 20260502190041 | 58 | 113 | 2.0 | 6.0 | 0.00 | 0.12 | 0.12 | 57 | 1009.6 |
| 20260502185529 | 58 | 249 | 2.0 | 7.0 | 0.00 | 0.12 | 0.12 | 60 | 1009.7 |
| 20260502185027 | 58 | 157 | 2.0 | 7.0 | 0.00 | 0.12 | 0.12 | 57 | 1009.8 |